OVERFALLS Weather Reports


Display with metric or nautical units.
time (UTC)temp
F
wind
direction
speed
MPH
gust
MPH
rain 1hr
in
rain 24hr
in
rain mn
in
humidity
%
barometer
mb
20220812033059 74 240 2.0 4.0 0.00 0.07 0.07 78 1014.0
20220812032532 74 231 2.0 5.0 0.00 0.07 0.07 78 1014.0
20220812032035 74 237 1.0 5.0 0.00 0.07 0.07 78 1014.0
20220812031554 74 225 1.0 4.0 0.00 0.07 0.07 78 1014.0
20220812031038 74 224 2.0 5.0 0.00 0.07 0.07 78 1014.0
20220812030536 74 219 2.0 5.0 0.00 0.07 0.07 78 1014.1
20220812030050 74 239 2.0 5.0 0.00 0.07 0.07 78 1014.0
20220812025536 74 229 2.0 5.0 0.00 0.07 0.07 78 1014.0
20220812025033 74 243 2.0 5.0 0.00 0.07 0.07 79 1013.9
20220812024603 74 244 2.0 6.0 0.00 0.07 0.07 79 1013.9
20220812024036 74 226 2.0 6.0 0.00 0.07 0.07 78 1014.0
20220812023533 75 231 2.0 5.0 0.00 0.07 0.07 78 1014.0
20220812023050 75 217 2.0 5.0 0.00 0.07 0.07 77 1013.9
20220812022536 75 217 3.0 7.0 0.00 0.07 0.07 77 1014.0
20220812022034 75 229 3.0 7.0 0.00 0.07 0.07 77 1014.1
20220812021548 75 211 2.0 5.0 0.00 0.07 0.07 76 1014.0
20220812021033 75 238 2.0 5.0 0.00 0.07 0.07 76 1014.1
20220812020539 76 238 2.0 5.0 0.00 0.07 0.07 75 1014.1
20220812020136 76 244 2.0 7.0 0.00 0.07 0.07 75 1014.1
20220812015532 76 238 2.0 7.0 0.00 0.07 0.07 75 1013.9
20220812015034 76 240 2.0 7.0 0.00 0.07 0.07 75 1014.0
20220812014559 76 249 3.0 7.0 0.00 0.07 0.07 75 1014.0
20220812014032 76 237 2.0 5.0 0.00 0.07 0.07 75 1013.9
20220812013541 76 219 2.0 5.0 0.00 0.07 0.07 75 1013.9
20220812013043 76 240 2.0 4.0 0.00 0.07 0.07 74 1013.8
20220812012535 76 230 2.0 5.0 0.00 0.07 0.07 75 1013.8
20220812012041 76 227 2.0 5.0 0.00 0.07 0.07 75 1013.7
20220812011632 76 242 2.0 5.0 0.00 0.07 0.07 75 1013.7
20220812011036 77 227 2.0 5.0 0.00 0.07 0.07 75 1013.7
20220812010536 77 0 1.0 4.0 0.00 0.07 0.07 75 1013.7
20220812010041 77 232 1.0 4.0 0.00 0.07 0.07 74 1013.6
20220812005533 77 207 2.0 4.0 0.00 0.34 0.07 74 1013.5
20220812005032 77 234 1.0 5.0 0.00 0.34 0.07 73 1013.5
20220812004547 78 217 1.0 5.0 0.00 0.34 0.07 72 1013.3
20220812004033 78 216 1.0 5.0 0.00 0.34 0.07 72 1013.3
20220812003534 78 247 2.0 5.0 0.00 0.34 0.07 71 1013.3
20220812003057 78 247 2.0 6.0 0.00 0.34 0.07 71 1013.3
20220812002535 78 233 2.0 6.0 0.00 0.34 0.07 71 1013.2
20220812002035 79 250 2.0 6.0 0.00 0.34 0.07 70 1013.2
20220812001551 79 253 3.0 4.0 0.00 0.34 0.07 70 1013.2
20220812001033 79 240 2.0 6.0 0.00 0.34 0.07 70 1013.1
20220812000533 79 253 2.0 7.0 0.00 0.34 0.07 69 1013.2
20220812000044 80 252 3.0 7.0 0.00 0.34 0.07 69 1013.1
20220811235531 80 267 3.0 7.0 0.00 0.34 0.07 68 1013.1
20220811235032 80 260 3.0 7.0 0.00 0.34 0.07 68 1013.0
20220811234552 80 267 3.0 7.0 0.00 0.34 0.07 68 1013.0
20220811234036 81 254 3.0 7.0 0.00 0.34 0.07 67 1012.9
20220811233534 81 234 3.0 8.0 0.00 0.34 0.07 67 1012.8
20220811233055 81 263 5.0 8.0 0.00 0.34 0.07 66 1012.8
20220811232535 81 248 3.0 10.0 0.00 0.34 0.07 66 1012.8
20220811232036 82 257 5.0 10.0 0.00 0.34 0.07 66 1012.8
20220811231629 82 263 5.0 11.0 0.00 0.34 0.07 65 1012.8
20220811231036 82 259 6.0 11.0 0.00 0.34 0.07 65 1012.7
20220811230534 82 260 5.0 11.0 0.00 0.34 0.07 64 1012.7
20220811230110 83 265 6.0 11.0 0.00 0.34 0.07 64 1012.5
20220811225535 83 252 5.0 11.0 0.00 0.34 0.07 64 1012.5
20220811225030 83 267 5.0 11.0 0.00 0.34 0.07 62 1012.5
20220811224548 83 327 3.0 11.0 0.00 0.34 0.07 61 1012.5
20220811224030 84 323 3.0 10.0 0.00 0.34 0.07 61 1012.7
20220811223537 84 311 3.0 10.0 0.00 0.34 0.07 61 1012.6
20220811223043 84 263 5.0 12.0 0.00 0.34 0.07 61 1012.6
20220811222534 84 196 7.0 12.0 0.00 0.34 0.07 61 1012.6
20220811222033 84 253 5.0 12.0 0.00 0.34 0.07 61 1012.6
20220811221549 84 265 5.0 10.0 0.00 0.34 0.07 61 1012.7
20220811221030 84 263 6.0 10.0 0.00 0.34 0.07 60 1012.7
20220811220532 84 289 3.0 8.0 0.00 0.34 0.07 61 1012.6
20220811220056 84 273 4.0 9.0 0.00 0.34 0.07 61 1012.7
20220811215538 84 302 4.0 9.0 0.00 0.40 0.07 62 1012.6
20220811215036 84 274 3.0 11.0 0.00 0.40 0.07 61 1012.7
20220811214558 84 281 4.0 11.0 0.00 0.40 0.07 59 1012.7
20220811214034 85 265 5.0 13.0 0.00 0.40 0.07 59 1012.6
20220811213536 84 258 8.0 13.0 0.00 0.40 0.07 60 1012.6
20220811213044 85 252 6.0 11.0 0.00 0.40 0.07 61 1012.5
20220811212535 85 326 1.0 10.0 0.00 0.40 0.07 60 1012.4
20220811212036 85 268 4.0 10.0 0.00 0.40 0.07 60 1012.5
20220811211552 85 259 4.0 9.0 0.00 0.40 0.07 60 1012.4
20220811211032 85 321 3.0 9.0 0.00 0.40 0.07 59 1012.5
20220811210534 85 250 4.0 13.0 0.00 0.40 0.07 60 1012.5
20220811210107 85 271 6.0 13.0 0.00 0.40 0.07 60 1012.5
20220811205533 85 282 8.0 13.0 0.00 0.40 0.07 58 1012.6
20220811205033 85 248 8.0 13.0 0.00 0.40 0.07 58 1012.7
20220811204550 85 240 4.0 10.0 0.00 0.40 0.07 58 1012.7
20220811204041 85 250 5.0 11.0 0.00 0.40 0.07 60 1012.8
20220811203536 85 255 5.0 11.0 0.00 0.40 0.07 59 1012.8
20220811203044 85 248 5.0 11.0 0.00 0.40 0.07 59 1012.8
20220811202538 84 254 3.0 8.0 0.00 0.40 0.07 62 1012.8
20220811202037 84 208 3.0 9.0 0.00 0.40 0.07 63 1012.8
20220811201553 84 275 3.0 10.0 0.00 0.40 0.07 62 1012.8
20220811201037 85 248 2.0 10.0 0.00 0.40 0.07 64 1012.8
20220811200532 84 282 3.0 12.0 0.00 0.40 0.07 63 1012.9
20220811200050 84 255 5.0 12.0 0.00 0.40 0.07 63 1012.8
20220811195532 84 318 5.0 12.0 0.00 0.40 0.07 63 1012.9
20220811195033 84 258 4.0 11.0 0.00 0.40 0.07 62 1013.0
20220811194543 84 242 4.0 11.0 0.00 0.40 0.07 63 1013.0
20220811194036 84 242 2.0 7.0 0.00 0.40 0.07 64 1013.0
20220811193534 83 250 3.0 8.0 0.00 0.40 0.07 67 1013.1
20220811193050 82 252 3.0 8.0 0.00 0.40 0.07 68 1013.2
20220811192532 83 270 3.0 11.0 0.00 0.40 0.07 68 1013.2
20220811192038 84 259 2.0 11.0 0.00 0.40 0.07 66 1013.2
20220811191556 84 267 3.0 10.0 0.00 0.40 0.07 67 1013.1
20220811191034 85 266 6.0 10.0 0.00 0.40 0.07 67 1013.2
20220811190538 83 0 1.0 9.0 0.00 0.40 0.07 67 1013.3
20220811190100 84 346 2.0 9.0 0.00 0.40 0.07 68 1013.5
20220811185533 83 244 3.0 9.0 0.00 0.40 0.07 71 1013.5
20220811185033 83 182 5.0 9.0 0.00 0.40 0.07 70 1013.5
20220811184616 81 232 4.0 9.0 0.00 0.40 0.07 72 1013.5
20220811184032 82 269 5.0 9.0 0.00 0.40 0.07 72 1013.5
20220811183532 82 306 3.0 9.0 0.00 0.40 0.07 72 1013.7
20220811183047 81 259 4.0 11.0 0.00 0.40 0.07 74 1013.6
20220811182533 81 200 4.0 11.0 0.00 0.40 0.07 74 1013.6
20220811182032 81 234 4.0 10.0 0.00 0.40 0.07 74 1013.6
20220811181555 81 276 4.0 10.0 0.00 0.40 0.07 75 1013.5
20220811181032 82 206 2.0 8.0 0.00 0.40 0.07 75 1013.6
20220811180539 81 248 4.0 9.0 0.00 0.40 0.07 74 1013.7
20220811180049 81 188 4.0 9.0 0.00 0.40 0.07 76 1013.6
20220811175534 80 217 4.0 9.0 0.00 0.40 0.07 77 1013.7
20220811175031 80 277 4.0 8.0 0.00 0.40 0.07 77 1013.8
20220811174543 80 247 4.0 9.0 0.00 0.40 0.07 78 1013.8
20220811174039 80 227 5.0 9.0 0.00 0.40 0.07 77 1013.9
20220811173532 80 246 2.0 10.0 0.00 0.40 0.07 77 1013.9
20220811173127 80 230 5.0 10.0 0.00 0.40 0.07 78 1014.0
20220811172534 80 205 4.0 9.0 0.00 0.40 0.07 77 1014.0
20220811172032 80 257 3.0 10.0 0.00 0.40 0.07 77 1014.0
20220811171553 80 265 4.0 10.0 0.00 0.40 0.07 77 1014.1
20220811171035 80 242 7.0 10.0 0.00 0.40 0.07 78 1014.2
20220811170535 80 281 3.0 9.0 0.00 0.40 0.07 79 1014.2
20220811170047 79 275 3.0 10.0 0.00 0.40 0.07 79 1014.2
20220811165532 79 267 4.0 10.0 0.00 0.40 0.07 79 1014.3
20220811165033 79 277 3.0 10.0 0.00 0.40 0.07 80 1014.3
20220811164547 79 281 4.0 9.0 0.00 0.40 0.07 83 1014.3
20220811164036 78 257 6.0 9.0 0.00 0.40 0.07 83 1014.3
20220811163532 78 261 4.0 8.0 0.00 0.40 0.07 83 1014.3
20220811163100 78 250 3.0 8.0 0.00 0.40 0.07 84 1014.3
20220811162532 79 254 2.0 7.0 0.00 0.40 0.07 84 1014.3
20220811162036 79 244 3.0 7.0 0.00 0.40 0.07 83 1014.3
20220811161553 79 238 2.0 6.0 0.00 0.40 0.07 82 1014.4
20220811161035 79 275 2.0 10.0 0.00 0.40 0.07 83 1014.4
20220811160533 78 262 6.0 10.0 0.00 0.40 0.07 83 1014.4
20220811160045 79 250 4.0 8.0 0.00 0.40 0.07 82 1014.5
20220811155534 79 0 2.0 8.0 0.00 0.40 0.07 83 1014.4
20220811155035 79 12 2.0 9.0 0.00 0.40 0.07 82 1014.4
20220811154628 79 281 4.0 9.0 0.00 0.40 0.07 83 1014.5
20220811154037 79 0 2.0 8.0 0.00 0.40 0.07 84 1014.5
20220811153537 78 268 4.0 8.0 0.00 0.40 0.07 85 1014.5
20220811153044 78 250 3.0 8.0 0.00 0.40 0.07 85 1014.5
20220811152534 78 263 2.0 13.0 0.00 0.40 0.07 85 1014.6
20220811152036 78 0 4.0 13.0 0.00 0.40 0.07 85 1014.6
20220811151550 78 268 2.0 7.0 0.00 0.40 0.07 85 1014.5
20220811151036 78 244 2.0 9.0 0.00 0.40 0.07 84 1014.6
20220811150537 78 287 2.0 9.0 0.00 0.40 0.07 86 1014.4
20220811150049 77 281 4.0 9.0 0.00 0.40 0.07 87 1014.5
20220811145538 77 300 5.0 9.0 0.00 0.40 0.07 87 1014.5
20220811145036 77 265 4.0 10.0 0.00 0.40 0.07 87 1014.4
20220811144555 77 246 5.0 11.0 0.00 0.40 0.07 87 1014.3
20220811144032 77 267 5.0 11.0 0.00 0.40 0.07 87 1014.1
20220811143533 78 271 3.0 10.0 0.00 0.40 0.07 87 1014.1
20220811143050 78 293 3.0 9.0 0.00 0.40 0.07 87 1014.1
20220811142536 77 253 4.0 9.0 0.00 0.40 0.07 87 1014.0
20220811142033 77 260 2.0 6.0 0.00 0.40 0.07 87 1014.1
20220811141538 77 15 1.0 7.0 0.00 0.40 0.07 88 1014.0
20220811141034 77 248 2.0 7.0 0.00 0.40 0.07 87 1014.2
20220811140541 77 309 1.0 8.0 0.00 0.40 0.07 88 1014.2
20220811140109 77 254 2.0 8.0 0.00 0.40 0.07 88 1014.1
20220811135535 77 329 1.0 8.0 0.00 0.40 0.07 89 1014.2
20220811135032 77 0 1.0 9.0 0.00 0.40 0.07 89 1014.2
20220811134550 77 17 3.0 9.0 0.00 0.40 0.07 90 1014.2
20220811134039 77 252 2.0 8.0 0.00 0.40 0.07 90 1014.2
20220811133535 77 283 2.0 8.0 0.00 0.40 0.07 91 1014.2
20220811133057 76 205 1.0 8.0 0.00 0.40 0.07 93 1014.2
20220811132536 76 299 2.0 8.0 0.00 0.40 0.07 93 1014.2
20220811132033 75 225 3.0 8.0 0.00 0.40 0.07 94 1014.2
20220811131608 75 251 5.0 9.0 0.00 0.40 0.07 94 1014.3
20220811131037 75 253 4.0 10.0 0.00 0.40 0.07 94 1014.3
20220811130536 75 265 5.0 10.0 0.00 0.40 0.07 94 1014.4
20220811130113 75 264 3.0 9.0 0.00 0.40 0.07 94 1014.4
20220811125534 75 253 5.0 9.0 0.00 0.40 0.07 94 1014.3
20220811125034 75 244 4.0 9.0 0.00 0.40 0.07 95 1014.3
20220811124547 75 269 2.0 8.0 0.00 0.40 0.07 96 1014.3
20220811124033 75 258 3.0 8.0 0.00 0.40 0.07 96 1014.4
20220811123532 74 250 3.0 6.0 0.00 0.40 0.07 96 1014.4
20220811123040 74 253 3.0 7.0 0.00 0.40 0.07 96 1014.3
20220811122536 74 250 2.0 8.0 0.00 0.40 0.07 96 1014.5
20220811122036 74 269 3.0 8.0 0.00 0.40 0.07 96 1014.6
20220811121549 74 261 3.0 7.0 0.00 0.40 0.07 96 1014.7
20220811121033 74 246 3.0 7.0 0.00 0.40 0.07 96 1014.6
20220811120531 73 248 3.0 7.0 0.00 0.40 0.07 96 1014.6
20220811120034 73 254 3.0 6.0 0.00 0.40 0.07 96 1014.7
20220811115531 73 264 2.0 7.0 0.00 0.40 0.07 96 1014.7
20220811115036 73 249 3.0 8.0 0.00 0.40 0.07 96 1014.6
20220811114553 73 207 3.0 8.0 0.00 0.40 0.07 96 1014.7
20220811114033 73 243 4.0 8.0 0.00 0.40 0.07 96 1014.6
20220811113537 74 257 2.0 6.0 0.01 0.40 0.07 96 1014.7
20220811113050 73 0 2.0 6.0 0.01 0.40 0.07 96 1014.5
20220811112531 73 251 2.0 6.0 0.01 0.40 0.07 96 1014.7
20220811112030 73 251 2.0 5.0 0.01 0.40 0.07 96 1014.6
20220811111547 73 226 2.0 9.0 0.02 0.40 0.07 96 1014.5
20220811111029 73 225 2.0 9.0 0.03 0.40 0.07 96 1014.5
20220811110530 73 218 3.0 7.0 0.03 0.40 0.07 96 1014.6
20220811110051 73 246 3.0 6.0 0.04 0.40 0.07 96 1014.5
20220811105533 73 244 3.0 5.0 0.04 0.40 0.07 96 1014.5
20220811105033 73 222 1.0 7.0 0.04 0.40 0.07 96 1014.5
20220811104604 73 242 2.0 7.0 0.03 0.39 0.06 96 1014.5
20220811104032 73 209 3.0 7.0 0.04 0.39 0.06 95 1014.5
20220811103537 73 259 3.0 8.0 0.03 0.38 0.05 95 1014.5
20220811103053 73 255 2.0 8.0 0.03 0.38 0.05 95 1014.6
20220811102531 73 239 3.0 7.0 0.03 0.38 0.05 95 1014.5
20220811102032 73 250 3.0 7.0 0.05 0.38 0.05 95 1014.6
20220811101540 73 252 4.0 8.0 0.04 0.37 0.04 95 1014.7
20220811101033 73 257 3.0 8.0 0.03 0.37 0.03 95 1014.6
20220811100532 73 261 4.0 8.0 0.03 0.36 0.03 95 1014.6
20220811100102 73 240 5.0 10.0 0.02 0.35 0.02 95 1014.7
20220811095537 73 250 5.0 10.0 0.02 0.35 0.02 95 1014.7
20220811095030 73 232 3.0 8.0 0.02 0.35 0.02 95 1014.7
20220811094554 73 254 3.0 7.0 0.02 0.35 0.02 95 1014.7
20220811094037 73 240 2.0 8.0 0.01 0.34 0.01 95 1014.7
20220811093529 73 262 4.0 8.0 0.01 0.34 0.01 95 1014.8
20220811093044 73 248 3.0 8.0 0.01 0.34 0.01 95 1014.7
20220811092533 73 265 3.0 8.0 0.01 0.34 0.01 95 1014.8
20220811092034 73 256 3.0 8.0 0.00 0.33 0.00 95 1014.7
20220811091544 73 248 2.0 8.0 0.00 0.33 0.00 95 1014.7
20220811091030 73 261 3.0 7.0 0.00 0.33 0.00 95 1014.7
20220811090532 73 250 3.0 7.0 0.00 0.33 0.00 94 1014.7
20220811090050 73 258 2.0 4.0 0.00 0.33 0.00 94 1014.8
20220811085531 73 265 2.0 4.0 0.00 0.33 0.00 94 1014.6
20220811085033 73 267 2.0 4.0 0.00 0.33 0.00 94 1014.6
20220811084545 73 263 2.0 4.0 0.00 0.33 0.00 94 1014.6
20220811084034 73 265 2.0 7.0 0.00 0.33 0.00 94 1014.5
20220811083530 73 264 3.0 7.0 0.00 0.33 0.00 94 1014.5
20220811083041 73 253 1.0 6.0 0.00 0.33 0.00 94 1014.6
20220811082530 73 261 2.0 6.0 0.00 0.33 0.00 94 1014.5
20220811082036 73 200 1.0 7.0 0.00 0.33 0.00 94 1014.6
20220811081602 73 246 2.0 7.0 0.00 0.33 0.00 94 1014.8
20220811081036 73 263 3.0 7.0 0.00 0.33 0.00 94 1014.7
20220811080532 73 240 2.0 7.0 0.00 0.33 0.00 94 1014.7
20220811080051 73 273 3.0 7.0 0.00 0.33 0.00 94 1014.7
20220811075530 73 265 2.0 7.0 0.00 0.33 0.00 93 1014.8
20220811075032 73 236 3.0 7.0 0.00 0.33 0.00 93 1014.9
20220811074557 73 257 4.0 8.0 0.00 0.33 0.00 93 1014.7
20220811074030 73 260 4.0 8.0 0.00 0.33 0.00 93 1014.8
20220811073533 73 269 4.0 8.0 0.00 0.33 0.00 93 1014.8
20220811073045 73 232 4.0 8.0 0.00 0.33 0.00 93 1014.9
20220811072533 73 263 3.0 7.0 0.00 0.33 0.00 93 1015.0
20220811072035 73 259 3.0 8.0 0.00 0.33 0.00 94 1014.9
20220811071543 73 258 3.0 8.0 0.00 0.33 0.00 94 1015.0
20220811071034 73 258 2.0 7.0 0.00 0.33 0.00 94 1015.0
20220811070545 73 236 3.0 7.0 0.00 0.33 0.00 94 1015.1
20220811070044 73 261 2.0 6.0 0.00 0.33 0.00 94 1015.1
20220811065535 73 263 3.0 6.0 0.00 0.33 0.00 94 1015.3
20220811065035 73 271 3.0 6.0 0.00 0.33 0.00 94 1015.3
20220811064537 73 260 2.0 4.0 0.00 0.33 0.00 94 1015.4
20220811064034 73 251 1.0 4.0 0.00 0.33 0.00 94 1015.4
20220811063534 73 251 1.0 4.0 0.00 0.33 0.00 94 1015.5
20220811063048 73 246 1.0 4.0 0.00 0.33 0.00 94 1015.5
20220811062533 73 219 2.0 4.0 0.00 0.33 0.00 94 1015.5
20220811062034 73 249 2.0 8.0 0.00 0.33 0.00 94 1015.6
20220811061537 73 272 3.0 8.0 0.00 0.33 0.00 94 1015.6
20220811061029 73 254 2.0 8.0 0.00 0.33 0.00 94 1015.6
20220811060533 73 263 3.0 8.0 0.00 0.33 0.00 94 1015.7
20220811060100 73 258 4.0 9.0 0.00 0.33 0.00 94 1015.8
20220811055541 73 246 5.0 9.0 0.00 0.33 0.00 95 1015.9
20220811055036 73 271 2.0 7.0 0.00 0.33 0.00 95 1016.0
20220811054544 73 263 3.0 9.0 0.00 0.33 0.00 95 1015.9
20220811054034 73 194 4.0 10.0 0.00 0.33 0.00 95 1016.0
20220811053534 73 263 4.0 10.0 0.00 0.33 0.00 95 1016.0
20220811053039 73 234 3.0 8.0 0.00 0.33 0.00 95 1015.9
20220811052533 73 211 3.0 8.0 0.00 0.33 0.00 95 1015.9
20220811052033 73 253 4.0 8.0 0.00 0.33 0.00 95 1015.9
20220811051554 73 265 3.0 8.0 0.00 0.33 0.00 95 1015.9
20220811051038 73 251 2.0 7.0 0.00 0.33 0.00 95 1015.9
20220811050532 73 261 2.0 6.0 0.00 0.33 0.00 95 1016.0
20220811050053 73 251 1.0 4.0 0.00 0.33 0.00 94 1016.0
20220811045542 73 244 2.0 4.0 0.00 0.33 0.00 94 1015.7
20220811045036 73 233 1.0 4.0 0.00 0.33 0.00 94 1015.9
20220811044544 73 216 1.0 3.0 0.00 0.33 0.00 94 1015.9
20220811044036 73 0 0.0 3.0 0.00 0.33 0.00 94 1016.1
20220811043533 73 0 0.0 4.0 0.00 0.33 0.00 94 1016.1
20220811043058 73 229 2.0 4.0 0.00 0.33 0.00 94 1016.1
20220811042534 73 209 2.0 4.0 0.00 0.33 0.00 94 1016.1
20220811042032 73 269 0.0 6.0 0.00 0.33 0.00 94 1016.2
20220811041544 73 0 0.0 6.0 0.00 0.33 0.00 94 1016.1
20220811041032 73 269 2.0 6.0 0.00 0.33 0.00 94 1016.0
20220811040531 73 0 0.0 4.0 0.00 0.33 0.00 94 1016.0
20220811040049 73 265 1.0 4.0 0.00 0.33 0.00 93 1015.9
20220811035533 73 234 1.0 3.0 0.00 0.33 0.33 93 1015.9
20220811035033 73 234 0.0 2.0 0.00 0.33 0.33 94 1016.0
20220811034540 73 0 0.0 3.0 0.00 0.33 0.33 94 1015.9
20220811034042 73 234 1.0 3.0 0.00 0.33 0.33 93 1016.1
20220811033533 73 0 0.0 2.0 0.00 0.33 0.33 94 1016.2
20220811033147 73 220 0.0 3.0 0.00 0.33 0.33 94 1016.4